Weather History for KJAN - April, 2014

Change the Weather History Date:

Thursday, April 3, 2014

  Actual Average Record
Temperature  
Mean Temperature 77 °F 61 °F  
Max Temperature 85 °F 73 °F 90 °F (1918)
Min Temperature 69 °F 49 °F 32 °F (1971)
Degree Days  
Heating Degree Days 0 6  
Month to date heating degree days 0 18  
Since 1 July heating degree days 2609 2288  
Cooling Degree Days 12 2  
Month to date cooling degree days 21 6  
Year to date cooling degree days 31 43  
Growing Degree Days 25 (Base 50)    
Moisture  
Dew Point 64 °F    
Average Humidity 66    
Maximum Humidity 84    
Minimum Humidity 47    
Precipitation  
Precipitation 0.00 in 0.18 in 2.43 in (2000)
Month to date precipitation T 0.54  
Year to date precipitation 12.70 15.31  
Sea Level Pressure  
Sea Level Pressure 29.92 in    
Wind  
Wind Speed 15 mph (South)    
Max Wind Speed 25 mph    
Max Gust Speed 30 mph    
Visibility 10 miles    
Events      
T = Trace of Precipitation, MM = Missing Value Source: NWS Daily Summary

Daily Weather History Graph

Daily Weather History Graph

Search for Another Location

Airport or City:

Trip Planner

Search our weather history database for the weather conditions in past years. The results will help you decide how hot, cold, wet, or windy it might be!

Date:

Astronomy

Apr. 03, 2014 Rise Set
Actual Time 6:45 AM CDT 7:21 PM CDT
Civil Twilight 6:21 AM CDT 7:46 PM CDT
Nautical Twilight 5:52 AM CDT 8:15 PM CDT
Astronomical Twilight 5:22 AM CDT 8:45 PM CDT
Moon 9:26 AM CDT (4/3) 11:29 PM CDT (4/3)
Length of Visible Light 13h 25m
Length of Day
12h 35m
Waxing Crescent, 17% of the Moon is Illuminated
Apr 3
Waxing Crescent
Apr 7
First Quarter
Apr 15
Full
Apr 22
Last Quarter
Apr 29
New

Hourly Weather History & Observations

Time (CDT) Temp. Heat Index Dew Point Humidity Pressure Visibility Wind Dir Wind Speed Gust Speed Precip Events Conditions
12:42 AM 69.8 °F - 64.4 °F 83% 29.99 in 10.0 mi South 5.8 mph - N/A   Mostly Cloudy
12:54 AM 69.1 °F - 64.0 °F 84% 29.98 in 10.0 mi South 10.4 mph - N/A   Overcast
1:54 AM 69.1 °F - 64.0 °F 84% 29.97 in 10.0 mi SSW 10.4 mph - N/A   Overcast
2:54 AM 69.1 °F - 64.0 °F 84% 29.96 in 10.0 mi South 10.4 mph - N/A   Overcast
3:54 AM 69.1 °F - 64.0 °F 84% 29.94 in 10.0 mi SSE 13.8 mph 21.9 mph N/A   Overcast
4:38 AM 69.8 °F - 64.4 °F 83% 29.95 in 10.0 mi South 12.7 mph - N/A   Overcast
4:54 AM 69.1 °F - 64.0 °F 84% 29.94 in 10.0 mi SSE 12.7 mph - N/A   Overcast
5:54 AM 69.1 °F - 64.9 °F 87% 29.94 in 10.0 mi South 12.7 mph 21.9 mph N/A   Overcast
6:45 AM 69.8 °F - 64.4 °F 83% 29.95 in 10.0 mi South 16.1 mph - N/A   Overcast
6:54 AM 70.0 °F - 64.9 °F 84% 29.94 in 10.0 mi South 12.7 mph - N/A   Overcast
7:36 AM 69.8 °F - 66.2 °F 88% 29.95 in 10.0 mi South 13.8 mph - N/A   Overcast
7:49 AM 71.6 °F - 66.2 °F 83% 29.95 in 10.0 mi South 15.0 mph 25.3 mph N/A   Overcast
7:54 AM 71.1 °F - 66.0 °F 84% 29.94 in 10.0 mi South 13.8 mph - N/A   Overcast
8:54 AM 73.0 °F - 66.0 °F 79% 29.94 in 10.0 mi South 17.3 mph 25.3 mph N/A   Overcast
9:54 AM 75.0 °F - 66.0 °F 73% 29.94 in 10.0 mi South 15.0 mph 27.6 mph N/A   Mostly Cloudy
10:01 AM 75.2 °F - 64.4 °F 69% 29.95 in 10.0 mi South 18.4 mph 23.0 mph N/A   Overcast
10:24 AM 75.2 °F - 64.4 °F 69% 29.95 in 10.0 mi South 16.1 mph 27.6 mph N/A   Overcast
10:54 AM 75.9 °F - 64.0 °F 67% 29.93 in 10.0 mi South 19.6 mph 27.6 mph N/A   Overcast
11:18 AM 75.2 °F - 62.6 °F 65% 29.94 in 10.0 mi South 18.4 mph 28.8 mph N/A   Mostly Cloudy
11:54 AM 79.0 °F - 63.0 °F 58% 29.92 in 10.0 mi SSW 15.0 mph 25.3 mph N/A   Mostly Cloudy
12:54 PM 82.9 °F 83.7 °F 62.1 °F 49% 29.91 in 10.0 mi South 19.6 mph - N/A   Mostly Cloudy
1:54 PM 82.9 °F 83.3 °F 61.0 °F 47% 29.90 in 10.0 mi South 17.3 mph 26.5 mph N/A   Mostly Cloudy
2:54 PM 82.0 °F 82.4 °F 60.1 °F 47% 29.89 in 10.0 mi South 19.6 mph 27.6 mph N/A   Mostly Cloudy
3:54 PM 82.0 °F 82.7 °F 61.0 °F 49% 29.88 in 10.0 mi SSE 20.7 mph 27.6 mph N/A   Mostly Cloudy
4:54 PM 80.1 °F 81.1 °F 61.0 °F 52% 29.86 in 10.0 mi South 18.4 mph 26.5 mph N/A   Mostly Cloudy
5:54 PM 79.0 °F - 61.0 °F 54% 29.87 in 10.0 mi South 13.8 mph - N/A   Mostly Cloudy
6:54 PM 77.0 °F - 61.0 °F 58% 29.86 in 10.0 mi South 11.5 mph - N/A   Mostly Cloudy
7:54 PM 75.0 °F - 62.1 °F 64% 29.87 in 10.0 mi SSE 11.5 mph - N/A   Mostly Cloudy
8:54 PM 73.9 °F - 63.0 °F 68% 29.86 in 10.0 mi SSE 10.4 mph - N/A   Mostly Cloudy
10:54 PM 73.0 °F - 64.0 °F 73% 29.86 in 10.0 mi South 17.3 mph 25.3 mph N/A   Mostly Cloudy
11:54 PM 72.0 °F - 64.0 °F 76% 29.87 in 10.0 mi South 11.5 mph - N/A   Partly Cloudy